This demonstration page uses our WeatherBlox Daily Observations layout. Learn more.

Left ArrowRight Arrow

Hourly Observations for April 9, 2022

Temp ( °F °C ) Dew Point ( °F °C ) Humidity (%) Winds ( mph kmh ) Pressure ( in mb ) Visibility ( mi km ) Precip ( " mm )
12:53 am 00:53 Clear 29 -1.7 8 -13.3 41 41 Calm 30.03 1017 10 16 0.00 0.00
1:53 am 01:53 Clear 28 -2.2 11 -11.7 49 49 Calm 30.02 1017 10 16 0.00 0.00
2:53 am 02:53 Clear 25 -3.9 10 -12.2 53 53 Calm 30.00 1016 10 16 0.00 0.00
3:53 am 03:53 Clear 27 -2.8 11 -11.7 51 51 Calm 29.99 1016 10 16 0.00 0.00
4:53 am 04:53 Clear 25 -3.9 11 -11.7 55 55 Calm 29.98 1015 10 16 0.00 0.00
5:53 am 05:53 Clear 32 0 8 -13.3 36 36 S 5 7 29.96 1015 10 16 0.00 0.00
6:53 am 06:53 Clear 33 0.6 8 -13.3 35 35 S 8 13 29.93 1014 10 16 0.00 0.00
7:53 am 07:53 Sunny 35 1.7 9 -12.8 34 34 S 7 11 29.92 1013 10 16 0.00 0.00
8:53 am 08:53 Sunny 43 6.1 11 -11.7 27 27 S 10 17 29.89 1012 10 16 0.00 0.00
9:53 am 09:53 Sunny 49 9.4 9 -12.8 20 20 S 14 22 29.85 1011 10 16 0.00 0.00
10:53 am 10:53 Sunny 55 12.8 9 -12.8 16 16 S 17 28 29.81 1010 10 16 0.00 0.00
11:53 am 11:53 Sunny 60 15.6 11 -11.7 14 14 S 20 31 29.77 1008 10 16 0.00 0.00
12:53 pm 12:53 Sunny 63 17.2 13 -10.6 14 14 S 21 33 29.72 1006 10 16 0.00 0.00
1:53 pm 13:53 Sunny 66 18.9 16 -8.9 14 14 S 18 30 29.68 1005 10 16 0.00 0.00
2:53 pm 14:53 Sunny 69 20.6 16 -8.9 13 13 S 18 30 29.66 1004 10 16 0.00 0.00
3:53 pm 15:53 Sunny 71 21.7 18 -7.8 13 13 S 18 30 29.62 1003 10 16 0.00 0.00
4:53 pm 16:53 Sunny 73 22.8 19 -7.2 13 13 S 16 26 29.59 1002 10 16 0.00 0.00
5:53 pm 17:53 Sunny 73 22.8 19 -7.2 13 13 S 12 19 29.57 1002 10 16 0.00 0.00
6:53 pm 18:53 Sunny 72 22.2 20 -6.7 14 14 S 17 28 29.57 1001 10 16 0.00 0.00
7:53 pm 19:53 Sunny 68 20 23 -5 18 18 SSE 13 20 29.56 1001 10 16 0.00 0.00
8:53 pm 20:53 Clear 62 16.7 24 -4.4 23 23 SE 10 17 29.55 1001 10 16 0.00 0.00
9:53 pm 21:53 Clear 58 14.4 26 -3.3 29 29 ESE 16 26 29.55 1001 10 16 0.00 0.00
10:53 pm 22:53 Clear 58 14.4 26 -3.3 29 29 ESE 16 26 29.53 1000 10 16 0.00 0.00
11:53 pm 23:53 Hazy 54 12.2 25 -3.9 33 33 SE 18 30 29.50 999 3 4 0.00 0.00

Powered by AerisWeather